• Join FlightAware (Why Join?)
  • Login
  • US Flag GB Flag 
22:08 EDT


 

Airport Tracker/Info


-or-


 

Live Flight TrackerFlight Track Log ✈ LXJ342 ✈ 03-Sep-2013 ✈ KPWM - KHPN

Flight Track Log - Related Links

Times and Time Zones

All times are in EDT time to prevent confusion due to time zone crossing. See the LXJ342 flight status page for this flight to view local times or setup timezone preferences in your user account.

Time Position Orientation Groundspeed Altitude Reporting Facility
EDT Latitude Longitude Course Direction KTS MPH feet Rate Location/Type
13:28 43.6539 -70.4286 209° Southwest 203 234 6,200  Level Boston Center
13:29 43.6592 -70.4858 277° West 219 252 10,100 3,780 Climbing Boston Center
13:30 43.6183 -70.5444 226° Southwest 188 216 13,900 3,300 Climbing Boston Center
13:31 43.5522 -70.5694 195° South 205 236 16,700 3,000 Climbing Boston Center
13:32 43.4692 -70.5978 194° South 259 298 19,900 2,520 Climbing Boston Center
13:33 43.3064 -70.5827 209° Southwest  Level FlightAware Approximate
13:33 43.3803 -70.6347 197° South 300 345 21,900  Level Boston Center
13:34 43.2376 -70.6344 209° Southwest  Level FlightAware Approximate
13:34 43.2808 -70.6719 195° South 344 396 22,000  Level Boston Center
13:35 43.1711 -70.7150 196° South 383 441 22,000  Level Boston Center
13:36 43.0742 -70.7858 208° Southwest 396 456 22,000  Level Boston Center
13:37 42.9750 -70.8567 208° Southwest 401 461 22,000  Level Boston Center
13:38 42.8758 -70.9272 208° Southwest 406 467 22,000  Level Boston Center
13:39 42.7725 -70.9864 203° Southwest 406 467 22,000  Level Boston Center
13:40 42.6689 -71.0394 201° Southwest 401 461 22,000  Level Boston Center
13:41 42.5611 -71.0928 200° South 406 467 22,000 -60 Level Boston Center
13:42 42.4831 -71.1844 221° Southwest 388 447 21,900 -600 Descending Boston Center
13:43 42.4553 -71.3286 255° West 371 427 20,900 -1,020 Descending Boston Center
13:44 42.4256 -71.4753 255° West 385 443 19,900 -960 Descending Boston Center
13:45 42.3786 -71.6053 244° Southwest 390 449 19,000 -480 Descending Boston Center
13:46 42.3356 -71.7156 242° Southwest 379 436 19,000  Level Boston Center
13:47 42.2781 -71.8592 242° Southwest 379 436 19,000  Level Boston Center
13:48 42.2264 -71.9858 241° Southwest 389 448 19,000  Level Boston Center
13:49 42.1811 -72.0983 242° Southwest 389 448 19,000  Level Boston Center
13:50 42.1250 -72.2358 241° Southwest 389 448 19,000 -240 Level Boston Center
13:51 42.0794 -72.3478 241° Southwest 389 448 18,600 -840 Descending Boston Center
13:52 42.0253 -72.4847 242° Southwest 383 441 17,400 -1,080 Descending Boston Center
13:53 41.9814 -72.5908 241° Southwest 374 430 16,500 -1,200 Descending Boston Center
13:54 41.9250 -72.7247 241° Southwest 374 430 15,000 -1,500 Descending Boston Center
13:55 41.8786 -72.8389 241° Southwest 368 423 13,500 -1,440 Descending Boston Center
13:56 41.8322 -72.9556 242° Southwest 363 418 12,100 -780 Descending Boston Center
13:57 41.7858 -73.0664 241° Southwest 353 406 12,000 -60 Descending Boston Center
13:58 41.7372 -73.1800 240° Southwest 353 406 12,000  Level Boston Center
13:59 41.6906 -73.2936 241° Southwest 358 412 12,000 -540 Level Boston Center
14:00 41.6419 -73.4039 239° Southwest 351 404 11,000 -1,080 Descending Boston Center
14:02 41.5833 -73.5500 242° Southwest 259 298 9,400 -1,320 Descending New York TRACON
14:03 41.5500 -73.6333 242° Southwest 257 296 7,700 -1,920 Descending New York TRACON
14:04 41.5167 -73.7000 236° Southwest 246 283 5,800 -2,040 Descending New York TRACON
14:05 41.4333 -73.6833 171° South 275 316 3,700 -1,440 Descending New York TRACON
14:06 41.3667 -73.6667 169° South 272 313 3,000 -420 Descending New York TRACON
14:07 41.3000 -73.6333 159° South 275 316 3,000  Level New York TRACON
14:08 41.2333 -73.6167 169° South 243 280 3,000 -480 Level New York TRACON
14:09 41.1667 -73.6000 169° South 236 272 2,100 -540 Descending New York TRACON
14:10 41.1000 -73.5667 159° South 229 264 2,000 -60 Descending New York TRACON
14:11 41.0500 -73.5500 166° South 210 242 2,000  Level New York TRACON
14:12 41.0000 -73.5833 207° Southwest 190 219 2,000  Level New York TRACON
14:13 40.9833 -73.6167 236° Southwest 170 196 2,000 -180 Level New York TRACON
14:14 41.0000 -73.6667 294° West 136 157 1,700 -480 Descending New York TRACON
14:14 41.0333 -73.6833 339° North 122 140 1,100 -720 Descending New York TRACON
14:16 41.0667 -73.7000 246° West  Level FlightAware Approximate
14:23 41.0669 -73.7076 246° West  Level Estimated
14:24 41.0667 -73.7000 246° West  Level FlightAware Approximate
14:25 41.0669 -73.7076 246° West  Level Estimated